Location: Waverly
(39.3325°N, 76.6061°W)
Time: 09:11:16
(UTC+00:00)

ARIANE 6 FM1 Upper Stage - Pass Details

Date: 17 December 2025
Orbit: 522 x 610 km, 62.0° (Epoch: 14 January)

Event Time Altitude Azimuth Distance (km) Brightness Sun altitude
Exits shadow 09:45:22 23° 145° (SE) 1,182 4.7 -29.1°
Maximum altitude 09:46:30 26° 117° (ESE) 1,075 4.6 -28.9°
Drops below altitude 10° 09:49:51 10° 60° (ENE) 1,780 5.8 -28.2°
Sets 09:52:16 0° 48° (NE) 2,665 6.6 -27.8°
